Lawrence, KS

12:43 PM CDT on July 20, 2017 (GMT -0500)
Lawrence Municipal

Weather History for KLWC - August, 2013

Change the Weather History Date:

Thursday, August 22, 2013

  Actual Average Record
Temperature  
Mean Temperature 80 °F 77 °F  
Max Temperature 91 °F 89 °F 102 °F (2014)
Min Temperature 68 °F 64 °F 52 °F (2016)
Degree Days  
Heating Degree Days 0 0  
Month to date heating degree days 0 0  
Since 1 June heating degree days 13 9  
Since 1 July heating degree days 0 1  
Cooling Degree Days 15 12  
Month to date cooling degree days 219 290  
Year to date cooling degree days 1062 1098  
Since 1 June cooling degree days 935 979  
Growing Degree Days 30 (Base 50)    
Moisture  
Dew Point 69 °F    
Average Humidity 70    
Maximum Humidity 90    
Minimum Humidity 49    
Precipitation  
Precipitation 0.00 in 0.18 in 0.35 in (2001)
Month to date precipitation 3.25 2.99  
Year to date precipitation 20.28 26.52  
Sea Level Pressure  
Sea Level Pressure 30.04 in    
Wind  
Wind Speed 3 mph (SE)    
Max Wind Speed 8 mph    
Max Gust Speed 13 mph    
Visibility 8 miles    
Events      
T = Trace of Precipitation, MM = Missing Value Source: NWS Daily Summary

Daily Weather History Graph

Daily Weather History Graph

Search for Another Location

Airport or City:

Trip Planner

Search our weather history database for the weather conditions in past years. The results will help you decide how hot, cold, wet, or windy it might be!

Date:

Astronomy

Aug. 22, 2013 Rise Set
Actual Time 6:40 AM CDT 8:05 PM CDT
Civil Twilight 6:12 AM CDT 8:33 PM CDT
Nautical Twilight 5:39 AM CDT 9:07 PM CDT
Astronomical Twilight 5:03 AM CDT 9:42 PM CDT
Moon 8:52 PM CDT (8/22) 8:29 AM CDT (8/22)
Length of Visible Light 14h 20m
Length of Day
13h 24m
Waning Gibbous, 96% of the Moon is Illuminated
Aug 22
Waning Gibbous
Aug 28
Last Quarter
Sep 5
New
Sep 12
First Quarter
Sep 19
Full

Hourly Weather History & Observations

Time (CDT) Temp. Heat Index Dew Point Humidity Pressure Visibility Wind Dir Wind Speed Gust Speed Precip Events Conditions
12:52 AM 71.1 °F - 66.9 °F 87% 30.02 in 8.0 mi ESE 4.6 mph - N/A   Clear
1:52 AM 71.1 °F - 66.9 °F 87% 30.03 in 8.0 mi Calm Calm - N/A   Clear
2:52 AM 71.1 °F - 66.9 °F 87% 30.01 in 7.0 mi SE 3.5 mph - N/A   Clear
3:52 AM 72.0 °F - 66.9 °F 84% 30.02 in 8.0 mi Calm Calm - N/A   Clear
4:52 AM 69.1 °F - 66.0 °F 90% 30.03 in 7.0 mi East 4.6 mph - N/A   Clear
5:52 AM 70.0 °F - 66.0 °F 87% 30.04 in 7.0 mi East 6.9 mph - N/A   Clear
6:52 AM 70.0 °F - 66.0 °F 87% 30.08 in 7.0 mi ENE 4.6 mph - N/A   Clear
7:52 AM 70.0 °F - 66.9 °F 90% 30.09 in 4.0 mi Calm Calm - N/A   Clear
8:52 AM 75.0 °F - 70.0 °F 84% 30.09 in 5.0 mi Calm Calm - N/A   Haze
9:52 AM 77.0 °F - 69.1 °F 76% 30.07 in 7.0 mi SSE 3.5 mph - N/A   Clear
10:52 AM 79.0 °F - 69.1 °F 72% 30.07 in 8.0 mi SE 4.6 mph - N/A   Clear
11:52 AM 82.9 °F 86.5 °F 69.1 °F 63% 30.06 in 6.0 mi SE 5.8 mph - N/A   Haze
12:52 PM 84.0 °F 87.8 °F 69.1 °F 61% 30.05 in 9.0 mi South 3.5 mph - N/A   Clear
1:52 PM 87.1 °F 92.0 °F 70.0 °F 57% 30.04 in 9.0 mi South 4.6 mph - N/A   Clear
2:52 PM 88.0 °F 92.1 °F 69.1 °F 53% 30.03 in 10.0 mi South 4.6 mph - N/A   Clear
3:52 PM 90.0 °F 94.5 °F 69.1 °F 50% 30.02 in 10.0 mi SSW 4.6 mph - N/A   Clear
4:52 PM 91.0 °F 96.6 °F 70.0 °F 50% 30.01 in 10.0 mi South 5.8 mph - N/A   Clear
5:52 PM 89.1 °F 94.1 °F 70.0 °F 53% 30.00 in 10.0 mi South 4.6 mph - N/A   Clear
6:52 PM 88.0 °F 93.8 °F 71.1 °F 57% 30.00 in 10.0 mi SSE 4.6 mph - N/A   Clear
7:52 PM 82.0 °F 88.6 °F 75.0 °F 79% 30.00 in 9.0 mi ESE 3.5 mph - N/A   Clear
8:52 PM 77.0 °F - 72.0 °F 84% 30.01 in 5.0 mi East 3.5 mph - N/A   Haze
9:52 PM 73.0 °F - 69.1 °F 87% 30.02 in 6.0 mi Calm Calm - N/A   Clear
10:52 PM 73.0 °F - 69.1 °F 87% 30.03 in 8.0 mi Calm Calm - N/A   Clear
11:52 PM 70.0 °F - 66.9 °F 90% 30.04 in 8.0 mi NE 3.5 mph - N/A   Clear